Location: Earls Croome
(52.0667°N, 2.2000°W)
Time: 14:53:51
(UTC+00:00)

Cosmos 1606 - Pass Details

Date: 17 November 2019
Orbit: 504 x 529 km, 82.5° (Epoch: 05 December)

Event Time Altitude Azimuth Distance (km) Brightness Sun altitude
Exits shadow 05:30:34 - 354° (N) 2,407 6.0 -18.3°
Reaches altitude 10° 05:32:13 10° 358° (N) 1,734 5.3 -18.1°
Maximum altitude 05:35:56 50° 75° (ENE) 654 3.5 -17.5°
Drops below altitude 10° 05:39:37 10° 152° (SSE) 1,730 5.8 -16.9°
Sets 05:41:48 0° 158° (SSE) 2,615 6.7 -16.6°
